Preview of NWS' New Version of Forecast
This preview is not operational and should not be used for support decisions.

Regional Weather Roundup (RWR)

Issued by Melbourne, FL (MLB)

                            
000
ASUS42 KMLB 200911
RWRMLB
HOURLY WEATHER ROUNDUP AROUND FLORIDA
NATIONAL WEATHER SERVICE OFFICE MELBOURNE FL
400 AM EST WED FEB 20 2019
  
CITY           SKY/WX    TMP DP  RH WIND       PRES   REMARKS
MELBOURNE      FAIR      73  67  81 SE9       30.10F                  
FORT PIERCE    FAIR      73  68  84 SE14      30.10                   
ORLANDO INTL   FAIR      70  67  90 SE6       30.11F                  
DAYTONA BEACH  FAIR      70  69  97 CALM      30.12F                  
VERO BEACH     FAIR      73  69  87 SE13      30.11F                  
$$
...ELSEWHERE ACROSS CENTRAL FLORIDA...
  
CITY           SKY/WX    TMP DP  RH WIND       PRES   REMARKS
PATRICK AFB    FAIR      70  70 100 SE10      30.10F                  
KSC            FAIR      72 N/A N/A SE6       30.10F                  
CAPE CANAVERAL FAIR      66  64  93 SE8       30.10F                  
ORLANDO EXEC   FAIR      69  67  93 SE7       30.11F                  
LEESBURG       FAIR      66  66 100 NE3       30.11F                  
SANFORD        FAIR      68  68 100 E3        30.11F FOG              
DELAND         FAIR      66  66 100 CALM      30.11F FOG              
WINTER HAVEN   FAIR      72  69  90 SE6       30.10F                  
KISSIMMEE      MOCLDY    70  68  93 SE8       30.11F                  
OKEECHOBEE     CLOUDY    68  66  94 CALM      30.10F                  
TAMPA          FAIR      71  67  87 SE7       30.08F                  
$$
...NORTHERN FLORIDA...
  
CITY           SKY/WX    TMP DP  RH WIND       PRES   REMARKS
PALM COAST     FOG       61  61  99 CALM      30.13F VSB<1/4          
ST AUGUSTINE   CLOUDY    63  61  94 N7        30.14F FOG              
OCALA          CLOUDY    66  66 100 NE3       30.11F FOG              
GAINESVILLE    CLOUDY    64  60  87 N6        30.15F                  
JACKSONVILLE   CLOUDY    59  57  93 NE5       30.15F                  
TALLAHASSEE    CLOUDY    56  54  93 E8        30.11F                  
$$
...ALONG THE SOUTHEAST COAST TO THE KEYS...
  
CITY           SKY/WX    TMP DP  RH WIND       PRES   REMARKS
STUART         FAIR      73  68  83 SE12      30.12S                  
WEST PALM BCH  MOCLDY    77  69  76 SE20G26   30.10F                  
MIAMI          LGT RAIN  76  73  91 SE13      30.09F                  
KEY WEST       FAIR      78  71  79 SE17      30.05F                  
$$
...MARINE REPORTS...
  
STATION/POSITION TIME  TEMP    WIND        PRES    WAVE   SWELL
                       AIR SEA DIR/SP/G            HT/PER HT/PER
                 (UTC) (F)     (DEG/KT/KT) (MB)    (FT/S) (FT/S)
ST AUGUSTINE FP  0900   60 61  350/ 12/ 12 1020.3F
20NM E CAPE CANA 0850   72     130/ 16/ 17 1020.0F   6/ 7   3/10
TRIDENT PIER     0848   69 69  120/  7/ 10 1020.6F
4NM E PORT CANAV 0830      67                N/A     3/ 5
SETTLEMENT PT GB 0900   75     120/ 15/ 18 1020.0F
$$